Language selection

Features

My Weather Profile Weather Topics  | 

Atlantic - Newfoundland: Past 24 Hour Conditions

 

St. Anthony Airport

12:30 PM NST 12 December 2019
Disclaimer

This table is a summary of hourly weather conditions for the past 24 hours.
Please note that these observations might not always be representative of weather conditions over their associated marine area.

Date / Time
(NST)
Wind(knots) Conditions Visibility(km) Pressure(kPa) Air tempC) Relative humidity(%) Dew pointC) Wind Chill
12 December 2019
12:30 W 13 gust 18 Sunny 16 101.6 -12 55 -19 -21
11:30 WSW 15 N/A 16 101.6 -12 59 -19 -22
10:30 WSW 12 Sunny 16 101.6 -13 62 -19 -22
9:30 WSW 11 Sunny 16 101.7 -14 63 -19 -23
8:30 W 10 Sunny 16 101.7 -14 67 -19 -23
7:30 WSW 11 Clear 16 101.7 -14 68 -19 -24
6:30 WSW 10 Clear 16 101.7 -14 66 -19 -22
5:30 W 10 gust 15 Clear 16 101.6 -13 62 -19 -21
4:30 W 9 Clear 16 101.6 -13 57 -20 -21
3:30 W 14 gust 19 Clear 16 101.5 -13 53 -20 -22
2:30 W 16 gust 22 Clear 16 101.5 -12 51 -20 -22
1:30 W 16 gust 22 Clear 16 101.5 -12 51 -20 -22
0:30 W 17 gust 25 Clear 16 101.5 -11 48 -20 -21
11 December 2019
23:30 W 22 gust 30 Clear 16 101.4 -11 49 -20 -22
22:30 W 22 gust 27 Clear 16 101.4 -10 51 -19 -21
21:30 W 24 gust 35 Clear 16 101.3 -9 55 -17 -20
20:30 W 22 gust 29 Clear 16 101.4 -9 51 -17 -19
19:30 WSW 19 gust 25 Mostly Cloudy 16 101.2 -8 50 -17 -18
18:30 WSW 19 gust 31 Mostly Cloudy 16 101.1 -7 48 -17 -17
17:30 WSW 21 gust 28 Mostly Cloudy 16 101.1 -8 49 -17 -17
16:30 WSW 18 gust 27 Clear 16 101.0 -8 53 -16 -17
15:30 WSW 21 gust 29 Sunny 16 101.0 -8 55 -16 -18
14:30 WSW 22 gust 31 Sunny 16 100.9 -8 54 -16 -18
13:30 W 19 gust 34 Sunny 16 100.8 -8 50 -16 -17
12:30 W 27 gust 38 Sunny 16 100.7 -8 46 -17 -18

Zoom-in to make a selection

Map of Atlantic - Newfoundland marine weather areas Banquereau - 44139 Blanc-Sablon Airport Cap Whittle Chevery Natashquan Airport Heath Point Îles de la Madeleine Airport Miscou Island Eskasoni (First Nations) Grand Étang Ingonish Beach North Mountain St.Paul Island J.A. Douglas McCurdy Sydney Airport Charlottetown Airport East Point North Cape Argentia Bonavista Burgeo Cape Race Corner Brook Daniel's Harbour Englee Ferolle Point La Scie Port aux Basques Rocky Harbour Sagona Island St. Anthony Airport St. John's Int'l Airport St. Lawrence Stephenville Airport Twillingate Winterland Branch Hill Wreckhouse Grates Cove Pool's Island Marticot Island Long Pond Cartwright Airport Mary's Harbour
Legend:
buoy Buoy
land station Land Station

Atlantic - Newfoundland Area

Another Region

What we are doing

Date modified: